Eureka, Nunavut

11:26 PM CST on November 18, 2017 (GMT -0600)
Eureka

Weather History for CWEU - February, 2014

Change the Weather History Date:

Sunday, February 2, 2014

  Actual Average Record
Temperature  
Mean Temperature -26 °F -  
Max Temperature -18 °F -31 °F 14 °F (2008)
Min Temperature -33 °F -44 °F -52 °F (2011)
Degree Days  
Heating Degree Days 90    
Moisture  
Dew Point -35 °F    
Average Humidity 62    
Maximum Humidity 69    
Minimum Humidity 41    
Precipitation  
Precipitation 0.00 in 0.00 in - ()
Sea Level Pressure  
Sea Level Pressure 30.22 in    
Wind  
Wind Speed 1 mph ()    
Max Wind Speed 5 mph    
Max Gust Speed -    
Visibility 14.0 miles    
Events Snow    
Averages and records for this station are not official NWS values.
T = Trace of Precipitation, MM = Missing Value Source: Averaged Metar Reports

Daily Weather History Graph

Daily Weather History Graph

Search for Another Location

Airport or City:

Trip Planner

Search our weather history database for the weather conditions in past years. The results will help you decide how hot, cold, wet, or windy it might be!

Date:

Astronomy

Dec. 31, 1969 Rise Set
Actual Time Sun does not rise Sun does not rise
Civil Twilight 11:25 AM CST 12:29 PM CST
Nautical Twilight 7:45 AM CST 4:12 PM CST
Astronomical Twilight 5:22 AM CST 6:35 PM CST
Moon 8:28 AM CST (2/2) 9:28 PM CST (2/2)
Length of Visible Light 1h 04m
Length of Day
0h 00m
Waxing Crescent, 11% of the Moon is Illuminated
Feb 2
Waxing Crescent
Feb 6
First Quarter
Feb 14
Full
Feb 22
Last Quarter
Mar 1
New

Hourly Weather History & Observations

Time (CST) Temp. Windchill Dew Point Humidity Pressure Visibility Wind Dir Wind Speed Gust Speed Precip Events Conditions
12:00 AM -25 °F - -33 °F 51% 30.17 in 15 mi West 3.5 mph - - Snow Snow
12:00 AM -25.6 °F -39.8 °F -32.8 °F 69% 30.17 in 15.0 mi SSW 4.6 mph - N/A   Clear
1:00 AM -25.6 °F - -36.4 °F 57% 30.18 in 15.0 mi North 2.3 mph - N/A   Clear
2:00 AM -23.8 °F - -32.8 °F 63% 30.18 in 15.0 mi Calm Calm - N/A   Clear
3:00 AM -25.6 °F - -32.8 °F 69% 30.19 in 15.0 mi North 2.3 mph - N/A   Clear
4:00 AM -23.8 °F - -31.0 °F 69% 30.21 in 15.0 mi Calm Calm - N/A   Clear
5:00 AM -23.8 °F - -32.8 °F 63% 30.22 in 15.0 mi NE 2.3 mph - N/A   Clear
6:00 AM -25 °F - -34 °F 45% 30.22 in 15 mi ENE 2.3 mph - - Snow Snow
6:00 AM -25.6 °F - -34.6 °F 63% 30.22 in 15.0 mi ENE 2.3 mph - N/A   Clear
7:00 AM -22.0 °F - -29.2 °F 69% 30.23 in 15.0 mi WNW 2.3 mph - N/A   Clear
8:00 AM -23.8 °F - -32.8 °F 63% 30.23 in 15.0 mi Calm Calm - N/A   Clear
9:00 AM -23.8 °F - -31.0 °F 69% 30.23 in 15.0 mi Calm Calm - N/A   Clear
10:00 AM -27.4 °F - -34.6 °F 69% 30.23 in 15.0 mi Calm Calm - N/A   Clear
11:00 AM -23.8 °F - -32.8 °F 63% 30.23 in 15.0 mi Calm Calm - N/A   Clear
12:00 PM -27 °F - -37 °F 41% 30.23 in 15 mi Calm Calm - - Snow Snow
12:00 PM -27.4 °F - -36.4 °F 62% 30.23 in 15.0 mi Calm Calm - N/A   Clear
1:00 PM -31.0 °F - -38.2 °F 68% 30.23 in 15.0 mi Calm Calm - N/A   Clear
2:00 PM -31.0 °F - -40.0 °F 62% 30.24 in 15.0 mi West 2.3 mph - N/A   Clear
3:00 PM -25.6 °F - -34.6 °F 63% 30.24 in 10.0 mi NNE 2.3 mph - N/A   Clear
4:00 PM -31.0 °F - -38.2 °F 68% 30.25 in 10.0 mi Calm Calm - N/A   Clear
5:00 PM -31.0 °F - -40.0 °F 62% 30.25 in 10.0 mi Calm Calm - N/A   Clear
6:00 PM -33 °F - -41 °F 44% 30.25 in 15 mi Calm Calm - - Snow Snow
6:00 PM -32.8 °F - -41.8 °F 62% 30.25 in 15.0 mi Calm Calm - N/A   Clear
7:00 PM -27.4 °F - -38.2 °F 57% 30.25 in 15.0 mi Calm Calm - N/A   Clear
8:00 PM -29.2 °F - -36.4 °F 68% 30.24 in 10.0 mi East 2.3 mph - N/A   Clear
9:00 PM -31.0 °F - -40.0 °F 62% 30.23 in 10.0 mi South 2.3 mph - N/A   Clear